Nampa, ID

11:02 PM MST on December 09, 2019 (GMT -0700)
Nampa

Weather History for KMAN - October, 2019

Change the Weather History Date:

Thursday, October 24, 2019

  Actual Average (WUND) Record (WUND)
Temperature  
Mean Temperature 42 °F -  
Max Temperature 59 °F - - (-1)
Min Temperature 26 °F - - (-1)
Degree Days  
Heating Degree Days 22    
Moisture  
Dew Point 27 °F    
Average Humidity 63    
Maximum Humidity 100    
Minimum Humidity 23    
Precipitation  
Precipitation 0.00 in - - ()
Sea Level Pressure  
Sea Level Pressure 30.45 in    
Wind  
Wind Speed 2 mph (North)    
Max Wind Speed 8 mph    
Max Gust Speed -    
Visibility 9 miles    
Events      
Averages and records for this station are not official NWS values.
T = Trace of Precipitation, MM = Missing Value Source: NWS Daily Summary

Daily Weather History Graph

Daily Weather History Graph

Search for Another Location

Airport or City:

Astronomy

Oct. 24, 2019 Rise Set
Actual Time 8:11 AM MDT 6:48 PM MDT
Civil Twilight 7:41 AM MDT 7:17 PM MDT
Nautical Twilight 7:08 AM MDT 7:51 PM MDT
Astronomical Twilight 6:35 AM MDT 8:24 PM MDT
Moon 3:35 AM MDT (10/24) 5:28 PM MDT (10/24)
Length of Visible Light 11h 35m
Length of Day
10h 37m
Waning Crescent, 16% of the Moon is Illuminated
Oct 24
Waning Crescent
Oct 27
New
Nov 4
First Quarter
Nov 12
Full
Nov 19
Last Quarter

Hourly Weather History & Observations

Time (MDT) Temp. Windchill Dew Point Humidity Pressure Visibility Wind Dir Wind Speed Gust Speed Precip Events Conditions
12:15 AM 42.8 °F 39.3 °F 28.4 °F 57% 30.43 in 4.0 mi WNW 5.8 mph - N/A   Haze
12:35 AM 41.0 °F 38.0 °F 30.2 °F 65% 30.43 in 4.0 mi WNW 4.6 mph - N/A   Haze
12:55 AM 41.0 °F 39.0 °F 28.4 °F 61% 30.43 in 4.0 mi WNW 3.5 mph - N/A   Haze
1:15 AM 41.0 °F 38.0 °F 28.4 °F 61% 30.43 in 5.0 mi Variable 4.6 mph - N/A   Haze
1:35 AM 37.4 °F - 30.2 °F 75% 30.44 in 10.0 mi Calm Calm - N/A   Partly Cloudy
1:55 AM 37.4 °F 32.8 °F 30.2 °F 75% 30.45 in 4.0 mi West 5.8 mph - N/A   Haze
2:15 AM 39.2 °F 33.6 °F 28.4 °F 65% 30.44 in 6.0 mi West 8.1 mph - N/A   Haze
2:35 AM 35.6 °F - 30.2 °F 81% 30.44 in 10.0 mi Calm Calm - N/A   Clear
2:55 AM 33.8 °F - 30.2 °F 87% 30.45 in 10.0 mi Calm Calm - N/A   Clear
3:15 AM 33.8 °F - 28.4 °F 81% 30.45 in 6.0 mi Calm Calm - N/A   Haze
3:35 AM 35.6 °F - 30.2 °F 81% 30.46 in 6.0 mi Calm Calm - N/A   Haze
3:55 AM 33.8 °F - 30.2 °F 87% 30.46 in 7.0 mi Calm Calm - N/A   Clear
4:15 AM 30.2 °F 26.7 °F 28.4 °F 93% 30.46 in 8.0 mi South 3.5 mph - N/A   Clear
4:35 AM 28.4 °F 24.6 °F 28.4 °F 100% 30.46 in 10.0 mi SE 3.5 mph - N/A   Clear
4:55 AM 30.2 °F 26.7 °F 30.2 °F 100% 30.46 in 3.0 mi East 3.5 mph - N/A   Partly Cloudy
5:15 AM 28.4 °F - 28.4 °F 100% 30.45 in 9.0 mi Calm Calm - N/A   Partly Cloudy
5:35 AM 30.2 °F - 30.2 °F 100% 30.46 in 6.0 mi Calm Calm - N/A   Partly Cloudy
5:55 AM 28.4 °F - 28.4 °F 100% 30.46 in 10.0 mi Calm Calm - N/A   Clear
6:15 AM 26.6 °F - 26.6 °F 100% 30.46 in 10.0 mi Calm Calm - N/A   Clear
6:35 AM 26.6 °F - 26.6 °F 100% 30.46 in 10.0 mi Calm Calm - N/A   Clear
6:55 AM 28.4 °F - 28.4 °F 100% 30.48 in 8.0 mi Calm Calm - N/A   Clear
7:15 AM 30.2 °F - 28.4 °F 93% 30.49 in 7.0 mi Calm Calm - N/A   Clear
7:35 AM 28.4 °F - 26.6 °F 93% 30.48 in 9.0 mi Calm Calm - N/A   Clear
7:55 AM 26.6 °F - 26.6 °F 100% 30.49 in 10.0 mi Calm Calm - N/A   Clear
8:15 AM 26.6 °F - 26.6 °F 100% 30.49 in 10.0 mi Calm Calm - N/A   Clear
8:35 AM 26.6 °F - 26.6 °F 100% 30.50 in 10.0 mi Calm Calm - N/A   Clear
8:55 AM 28.4 °F 23.3 °F 28.4 °F 100% 30.49 in 10.0 mi SE 4.6 mph - N/A   Clear
9:15 AM 30.2 °F 25.4 °F 28.4 °F 93% 30.49 in 10.0 mi SE 4.6 mph - N/A   Clear
9:35 AM 30.2 °F - 28.4 °F 93% 30.50 in 10.0 mi Calm Calm - N/A   Clear
9:55 AM 33.8 °F - 30.2 °F 87% 30.51 in 9.0 mi Calm Calm - N/A   Clear
10:15 AM 35.6 °F - 30.2 °F 81% 30.52 in 7.0 mi Calm Calm - N/A   Clear
10:35 AM 39.2 °F - 30.2 °F 70% 30.52 in 9.0 mi Calm Calm - N/A   Clear
10:55 AM 42.8 °F - 32.0 °F 66% 30.53 in 8.0 mi Calm Calm - N/A   Clear
11:15 AM 44.6 °F - 30.2 °F 57% 30.53 in 5.0 mi Calm Calm - N/A   Haze
11:35 AM 44.6 °F - 30.2 °F 57% 30.53 in 8.0 mi Calm Calm - N/A   Clear
11:55 AM 46.4 °F - 30.2 °F 53% 30.52 in 7.0 mi Calm Calm - N/A   Clear
12:15 PM 48.2 °F - 30.2 °F 50% 30.52 in 7.0 mi Calm Calm - N/A   Clear
12:55 PM 51.8 °F - 26.6 °F 38% 30.49 in 9.0 mi Calm Calm - N/A   Clear
1:15 PM 51.8 °F - 26.6 °F 38% 30.48 in 10.0 mi Variable 4.6 mph - N/A   Clear
1:35 PM 53.6 °F - 26.6 °F 35% 30.47 in 10.0 mi Calm Calm - N/A   Clear
1:55 PM 53.6 °F - 24.8 °F 33% 30.46 in 10.0 mi Calm Calm - N/A   Clear
2:15 PM 55.4 °F - 24.8 °F 31% 30.46 in 10.0 mi Calm Calm - N/A   Clear
2:35 PM 55.4 °F - 23.0 °F 29% 30.45 in 10.0 mi NE 6.9 mph - N/A   Clear
2:55 PM 55.4 °F - 24.8 °F 31% 30.45 in 10.0 mi North 6.9 mph - N/A   Clear
3:15 PM 57.2 °F - 23.0 °F 27% 30.44 in 10.0 mi North 5.8 mph - N/A   Clear
3:35 PM 57.2 °F - 23.0 °F 27% 30.44 in 9.0 mi North 6.9 mph - N/A   Clear
3:55 PM 57.2 °F - 23.0 °F 27% 30.43 in 10.0 mi NNE 6.9 mph - N/A   Clear
4:15 PM 59.0 °F - 21.2 °F 23% 30.43 in 10.0 mi North 8.1 mph - N/A   Clear
4:35 PM 59.0 °F - 21.2 °F 23% 30.42 in 10.0 mi North 5.8 mph - N/A   Clear
4:55 PM 59.0 °F - 21.2 °F 23% 30.42 in 10.0 mi NW 5.8 mph - N/A   Clear
5:15 PM 59.0 °F - 21.2 °F 23% 30.42 in 10.0 mi North 4.6 mph - N/A   Clear
5:35 PM 59.0 °F - 21.2 °F 23% 30.42 in 10.0 mi North 5.8 mph - N/A   Clear
5:55 PM 59.0 °F - 21.2 °F 23% 30.41 in 10.0 mi Variable 3.5 mph - N/A   Clear
6:15 PM 57.2 °F - 21.2 °F 25% 30.41 in 10.0 mi Calm Calm - N/A   Clear
6:35 PM 57.2 °F - 21.2 °F 25% 30.40 in 10.0 mi Calm Calm - N/A   Clear
6:55 PM 55.4 °F - 23.0 °F 29% 30.40 in 10.0 mi Calm Calm - N/A   Clear
7:15 PM 51.8 °F - 23.0 °F 33% 30.41 in 10.0 mi Calm Calm - N/A   Clear
7:35 PM 50.0 °F - 24.8 °F 37% 30.41 in 10.0 mi Calm Calm - N/A   Clear
7:55 PM 50.0 °F - 26.6 °F 40% 30.41 in 10.0 mi Calm Calm - N/A   Clear
8:15 PM 46.4 °F - 28.4 °F 50% 30.41 in 10.0 mi Calm Calm - N/A   Clear
8:35 PM 46.4 °F - 28.4 °F 50% 30.42 in 10.0 mi Calm Calm - N/A   Clear
8:55 PM 44.6 °F - 28.4 °F 53% 30.42 in 10.0 mi Calm Calm - N/A   Clear
9:15 PM 44.6 °F - 28.4 °F 53% 30.42 in 9.0 mi Calm Calm - N/A   Clear
9:35 PM 41.0 °F - 30.2 °F 65% 30.42 in 10.0 mi Calm Calm - N/A   Clear
9:55 PM 42.8 °F - 28.4 °F 57% 30.42 in 4.0 mi Calm Calm - N/A   Haze
10:15 PM 41.0 °F - 30.2 °F 65% 30.42 in 10.0 mi Calm Calm - N/A   Scattered Clouds
10:35 PM 41.0 °F - 30.2 °F 65% 30.42 in 10.0 mi Calm Calm - N/A   Scattered Clouds
10:55 PM 39.2 °F - 30.2 °F 70% 30.42 in 9.0 mi Calm Calm - N/A   Mostly Cloudy
11:15 PM 39.2 °F - 30.2 °F 70% 30.42 in 10.0 mi Calm Calm - N/A   Scattered Clouds
11:35 PM 37.4 °F - 28.4 °F 70% 30.42 in 10.0 mi Calm Calm - N/A   Scattered Clouds
11:55 PM 37.4 °F - 30.2 °F 75% 30.42 in 9.0 mi Calm Calm - N/A   Mostly Cloudy